Volver al catálogo

BREEZE-M DEB

TANK

ActivoHEO
NORAD 27646·DEBRIS·🇷🇺 Russia

Lanzado Dec 29, 2002 desde Baikonur Cosmodrome

Loading…

Próximos Pases (próximas 24 horas)

TLE

ActualizadoSource: Space-Track

Época: Sep 12, 2026, 03:08 UTC

1 27646U 02062C   26255.13093021  .00000008  00000-0  14705-3 0  9992
2 27646  49.4906 153.1585 5425692 223.1606 344.5466  4.61724335399479

Sigue BREEZE-M DEB en tiempo real con AllMySat

Download on the App Store